TimeEDT,TemperatureF,Dew PointF,Humidity,Sea Level PressureIn,VisibilityMPH,Wind Direction,Wind SpeedMPH,Gust SpeedMPH,PrecipitationIn,Events,Conditions,WindDirDegrees,DateUTC
12:56 AM,59.0,55.9,90,30.15,3.0,Calm,Calm,-,N/A,,Clear,0,2012-10-25 04:56:00
1:28 AM,60.8,57.2,88,30.14,1.8,Calm,Calm,-,N/A,,Clear,0,2012-10-25 05:28:00
1:37 AM,60.8,57.2,88,30.15,3.0,Calm,Calm,-,N/A,,Clear,0,2012-10-25 05:37:00
1:56 AM,60.1,57.0,90,30.15,1.2,Calm,Calm,-,N/A,,Partly Cloudy,0,2012-10-25 05:56:00
1:59 AM,57.2,55.4,94,30.14,0.8,Calm,Calm,-,N/A,,Mist,0,2012-10-25 05:59:00
2:10 AM,57.2,55.4,94,30.14,0.8,Calm,Calm,-,N/A,,Clear,0,2012-10-25 06:10:00
2:19 AM,59.0,55.4,88,30.13,1.2,Calm,Calm,-,N/A,,Clear,0,2012-10-25 06:19:00
2:34 AM,57.2,55.4,94,30.13,4.0,Calm,Calm,-,N/A,,Clear,0,2012-10-25 06:34:00
2:56 AM,57.9,55.9,93,30.13,3.0,Calm,Calm,-,N/A,,Clear,0,2012-10-25 06:56:00
3:07 AM,55.4,53.6,94,30.12,3.0,Calm,Calm,-,N/A,,Scattered Clouds,0,2012-10-25 07:07:00
3:10 AM,57.2,53.6,88,30.12,2.5,Calm,Calm,-,N/A,,Mostly Cloudy,0,2012-10-25 07:10:00
3:14 AM,57.2,53.6,88,30.12,1.0,Calm,Calm,-,N/A,,Mist,0,2012-10-25 07:14:00
3:18 AM,55.4,53.6,94,30.12,0.5,Calm,Calm,-,N/A,Fog,Fog,0,2012-10-25 07:18:00
3:25 AM,57.2,55.4,94,30.12,1.0,Calm,Calm,-,N/A,,Mist,0,2012-10-25 07:25:00
3:27 AM,57.2,55.4,94,30.12,2.0,Calm,Calm,-,N/A,,Mostly Cloudy,0,2012-10-25 07:27:00
3:44 AM,57.2,55.4,94,30.12,0.8,Calm,Calm,-,N/A,,Mist,0,2012-10-25 07:44:00
3:56 AM,55.9,54.0,93,30.12,0.5,Calm,Calm,-,N/A,Fog,Fog,0,2012-10-25 07:56:00
4:03 AM,57.2,53.6,88,30.12,2.0,Calm,Calm,-,N/A,,Clear,0,2012-10-25 08:03:00
4:11 AM,57.2,55.4,94,30.12,5.0,Calm,Calm,-,N/A,,Clear,0,2012-10-25 08:11:00
4:29 AM,55.4,53.6,94,30.12,2.5,Calm,Calm,-,N/A,,Partly Cloudy,0,2012-10-25 08:29:00
4:44 AM,57.2,53.6,88,30.12,9.0,Calm,Calm,-,N/A,,Mostly Cloudy,0,2012-10-25 08:44:00
4:56 AM,57.9,55.0,90,30.14,10.0,Calm,Calm,-,N/A,,Mostly Cloudy,0,2012-10-25 08:56:00
5:08 AM,59.0,55.4,88,30.13,0.5,Calm,Calm,-,N/A,Fog,Fog,0,2012-10-25 09:08:00
5:19 AM,57.2,55.4,94,30.13,1.0,Calm,Calm,-,N/A,,Overcast,0,2012-10-25 09:19:00
5:27 AM,57.2,55.4,94,30.13,0.5,Calm,Calm,-,N/A,Fog,Fog,0,2012-10-25 09:27:00
5:35 AM,57.2,53.6,88,30.13,0.2,Calm,Calm,-,N/A,Fog,Fog,0,2012-10-25 09:35:00
5:56 AM,57.0,54.0,89,30.15,0.5,Calm,Calm,-,N/A,Fog,Fog,0,2012-10-25 09:56:00
6:13 AM,55.4,53.6,94,30.13,2.0,Calm,Calm,-,N/A,,Overcast,0,2012-10-25 10:13:00
6:20 AM,57.2,53.6,88,30.14,3.0,Calm,Calm,-,N/A,,Overcast,0,2012-10-25 10:20:00
6:26 AM,57.2,53.6,88,30.14,1.5,Calm,Calm,-,N/A,,Overcast,0,2012-10-25 10:26:00
6:28 AM,57.2,55.4,94,30.14,0.8,Calm,Calm,-,N/A,,Mist,0,2012-10-25 10:28:00
6:36 AM,57.2,55.4,94,30.14,0.5,Calm,Calm,-,N/A,Fog,Fog,0,2012-10-25 10:36:00
6:43 AM,57.2,55.4,94,30.14,0.2,Calm,Calm,-,N/A,Fog,Fog,0,2012-10-25 10:43:00
7:02 AM,57.2,55.4,94,30.13,1.0,Calm,Calm,-,N/A,,Mist,0,2012-10-25 11:02:00
7:11 AM,57.2,55.4,94,30.14,0.5,Calm,Calm,-,N/A,Fog,Fog,0,2012-10-25 11:11:00
7:16 AM,57.2,55.4,94,30.14,0.2,Calm,Calm,-,N/A,Fog,Fog,0,2012-10-25 11:16:00
7:27 AM,57.2,55.4,94,30.14,0.8,Calm,Calm,-,N/A,,Mist,0,2012-10-25 11:27:00
7:29 AM,57.2,55.4,94,30.14,1.2,Calm,Calm,-,N/A,,Overcast,0,2012-10-25 11:29:00
7:40 AM,57.2,55.4,94,30.14,0.8,Calm,Calm,-,N/A,,Mist,0,2012-10-25 11:40:00
7:48 AM,59.0,57.2,94,30.14,0.5,Calm,Calm,-,N/A,Fog,Fog,0,2012-10-25 11:48:00
7:52 AM,59.0,57.2,94,30.14,1.2,Calm,Calm,-,N/A,,Overcast,0,2012-10-25 11:52:00
7:56 AM,57.9,55.9,93,30.15,4.0,Calm,Calm,-,N/A,,Mostly Cloudy,0,2012-10-25 11:56:00
8:11 AM,60.8,57.2,88,30.15,1.0,Calm,Calm,-,N/A,,Mist,0,2012-10-25 12:11:00
8:19 AM,60.8,57.2,88,30.16,0.5,Calm,Calm,-,N/A,Fog,Fog,0,2012-10-25 12:19:00
8:28 AM,60.8,57.2,88,30.16,0.5,Calm,Calm,-,N/A,Fog,Fog,0,2012-10-25 12:28:00
8:36 AM,60.8,57.2,88,30.16,1.0,Calm,Calm,-,N/A,,Overcast,0,2012-10-25 12:36:00
8:45 AM,60.8,57.2,88,30.16,0.5,Calm,Calm,-,N/A,Fog,Fog,0,2012-10-25 12:45:00
8:56 AM,61.0,59.0,93,30.17,0.5,Calm,Calm,-,N/A,Fog,Fog,0,2012-10-25 12:56:00
9:01 AM,62.6,59.0,88,30.17,1.2,Calm,Calm,-,N/A,,Overcast,0,2012-10-25 13:01:00
9:14 AM,62.6,60.8,94,30.17,3.0,NE,3.5,-,N/A,,Overcast,50,2012-10-25 13:14:00
9:39 AM,66.2,62.6,88,30.17,10.0,NE,3.5,-,N/A,,Partly Cloudy,50,2012-10-25 13:39:00
9:56 AM,66.9,62.1,84,30.18,10.0,Calm,Calm,-,N/A,,Clear,0,2012-10-25 13:56:00
10:56 AM,75.0,64.0,69,30.18,10.0,NNE,3.5,-,N/A,,Clear,30,2012-10-25 14:56:00
11:56 AM,78.1,64.0,62,30.17,10.0,East,4.6,-,N/A,,Clear,100,2012-10-25 15:56:00
12:56 PM,80.1,61.0,52,30.15,10.0,East,4.6,-,N/A,,Scattered Clouds,100,2012-10-25 16:56:00
1:56 PM,82.0,60.1,47,30.13,10.0,Calm,Calm,-,N/A,,Partly Cloudy,0,2012-10-25 17:56:00
2:56 PM,80.1,60.1,50,30.11,10.0,ESE,5.8,-,N/A,,Clear,120,2012-10-25 18:56:00
3:56 PM,81.0,57.9,45,30.11,10.0,ESE,6.9,-,N/A,,Clear,120,2012-10-25 19:56:00
5:56 PM,75.0,61.0,62,30.12,10.0,SE,5.8,-,N/A,,Clear,130,2012-10-25 21:56:00
6:56 PM,70.0,61.0,73,30.12,10.0,SSE,3.5,-,N/A,,Clear,150,2012-10-25 22:56:00
7:56 PM,70.0,62.1,76,30.13,10.0,East,4.6,-,N/A,,Clear,100,2012-10-25 23:56:00
8:56 PM,70.0,62.1,76,30.12,10.0,East,5.8,-,N/A,,Clear,80,2012-10-26 00:56:00
9:56 PM,69.1,62.1,78,30.12,10.0,East,8.1,-,N/A,,Clear,90,2012-10-26 01:56:00
10:56 PM,68.0,59.0,73,30.10,10.0,Calm,Calm,-,N/A,,Clear,0,2012-10-26 02:56:00
11:56 PM,66.9,57.9,73,30.10,10.0,NE,3.5,-,N/A,,Clear,40,2012-10-26 03:56:00